Location: Wangen+im+Allg�u
(47.7098°N, 9.8383°E)
Time: 05:27:15
(UTC+01:00)

ISS - Pass Details

Date: 17 November 2017
Orbit: 402 x 407 km, 51.6° (Epoch: 21 November)

Event Time Altitude Azimuth Distance (km) Brightness Sun altitude
Exits shadow 04:48:21 16° 132° (SE) 1,159 -1.0 -26.8°
Drops below altitude 10° 04:49:05 10° 129° (SE) 1,450 -0.4 -26.7°
Sets 04:51:09 0° 126° (SE) 2,306 0.8 -26.4°
